| time (UTC) | temp F | wind direction | speed knots | gust knots | rain 1hr in | rain 24hr in | rain mn in | humidity % | barometer mb |
| 20260506163039 | 77 | 199 | 0.0 | 4.3 | 0.00 | 0.00 | 0.00 | 87 | 1016.0 |
| 20260506161543 | 77 | 0 | 0.0 | 1.7 | 0.00 | 0.00 | 0.00 | 88 | 1015.9 |
| 20260506160040 | 77 | 0 | 0.0 | 1.7 | 0.00 | 0.00 | 0.00 | 87 | 1015.9 |
| 20260506154541 | 77 | 0 | 0.0 | 0.9 | 0.00 | 0.00 | 0.00 | 89 | 1015.8 |
| 20260506153037 | 76 | 183 | 0.0 | 1.7 | 0.00 | 0.00 | 0.00 | 89 | 1015.8 |
| 20260506151541 | 76 | 0 | 0.0 | 1.7 | 0.00 | 0.00 | 0.00 | 91 | 1015.6 |
| 20260506150035 | 75 | 201 | 0.0 | 2.6 | 0.00 | 0.00 | 0.00 | 90 | 1015.6 |
| 20260506144552 | 75 | 231 | 0.9 | 3.5 | 0.00 | 0.00 | 0.00 | 90 | 1015.5 |
| 20260506143038 | 75 | 212 | 0.0 | 4.3 | 0.00 | 0.00 | 0.00 | 91 | 1015.4 |
| 20260506141537 | 74 | 0 | 0.0 | 2.6 | 0.00 | 0.00 | 0.00 | 93 | 1015.3 |
| 20260506140037 | 73 | 224 | 0.9 | 3.5 | 0.00 | 0.00 | 0.00 | 96 | 1015.2 |
| 20260506134535 | 73 | 0 | 0.9 | 5.2 | 0.00 | 0.00 | 0.00 | 97 | 1015.0 |
| 20260506133040 | 72 | 0 | 0.0 | 0.9 | 0.00 | 0.00 | 0.00 | 97 | 1015.0 |
| 20260506131546 | 72 | 0 | 0.0 | 0.0 | 0.00 | 0.00 | 0.00 | 97 | 1014.9 |
| 20260506130037 | 71 | 0 | 0.0 | 2.6 | 0.00 | 0.00 | 0.00 | 97 | 1014.7 |
| 20260506124537 | 71 | 0 | 0.0 | 1.7 | 0.00 | 0.00 | 0.00 | 97 | 1014.5 |
| 20260506123037 | 70 | 0 | 0.0 | 0.0 | 0.00 | 0.00 | 0.00 | 97 | 1014.2 |
| 20260506121537 | 69 | 0 | 0.0 | 0.9 | 0.00 | 0.00 | 0.00 | 97 | 1014.1 |
| 20260506120040 | 68 | 0 | 0.0 | 0.0 | 0.00 | 0.00 | 0.00 | 97 | 1014.0 |
| 20260506114542 | 67 | 0 | 0.0 | 0.0 | 0.00 | 0.00 | 0.00 | 97 | 1013.7 |
| 20260506113037 | 67 | 0 | 0.0 | 0.0 | 0.00 | 0.00 | 0.00 | 97 | 1013.6 |
| 20260506111536 | 66 | 0 | 0.0 | 0.0 | 0.00 | 0.00 | 0.00 | 96 | 1013.1 |
| 20260506110036 | 65 | 0 | 0.0 | 0.0 | 0.00 | 0.00 | 0.00 | 96 | 1012.9 |
| 20260506104537 | 66 | 0 | 0.0 | 0.0 | 0.00 | 0.00 | 0.00 | 96 | 1012.8 |
| 20260506103038 | 66 | 0 | 0.0 | 0.0 | 0.00 | 0.00 | 0.00 | 96 | 1012.5 |
| 20260506101538 | 66 | 0 | 0.0 | 0.0 | 0.00 | 0.00 | 0.00 | 96 | 1012.1 |
| 20260506100039 | 66 | 0 | 0.0 | 0.0 | 0.00 | 0.00 | 0.00 | 96 | 1012.1 |
| 20260506094536 | 66 | 0 | 0.0 | 0.0 | 0.00 | 0.00 | 0.00 | 96 | 1012.1 |
| 20260506093035 | 65 | 0 | 0.0 | 0.0 | 0.00 | 0.00 | 0.00 | 96 | 1012.1 |
| 20260506091538 | 65 | 0 | 0.0 | 0.0 | 0.00 | 0.00 | 0.00 | 96 | 1012.2 |
| 20260506090037 | 65 | 0 | 0.0 | 0.0 | 0.00 | 0.00 | 0.00 | 96 | 1012.1 |
| 20260506084541 | 65 | 0 | 0.0 | 0.0 | 0.00 | 0.00 | 0.00 | 95 | 1012.3 |
| 20260506083037 | 66 | 0 | 0.0 | 0.0 | 0.00 | 0.00 | 0.00 | 96 | 1012.5 |
| 20260506081539 | 66 | 0 | 0.0 | 0.0 | 0.00 | 0.00 | 0.00 | 96 | 1012.4 |
| 20260506073038 | 66 | 0 | 0.0 | 0.9 | 0.00 | 0.00 | 0.00 | 96 | 1013.0 |
| 20260506071537 | 65 | 0 | 0.0 | 0.0 | 0.00 | 0.00 | 0.00 | 95 | 1012.8 |
| 20260506061537 | 64 | 0 | 0.0 | 0.0 | 0.00 | 0.00 | 0.00 | 95 | 1013.2 |
| 20260506044544 | 63 | 0 | 0.0 | 0.0 | 0.00 | 0.00 | 0.00 | 93 | 1014.0 |
| 20260506043035 | 64 | 0 | 0.0 | 0.0 | 0.00 | 0.00 | 0.00 | 93 | 1014.0 |
| 20260506041539 | 64 | 0 | 0.0 | 0.0 | 0.00 | 0.00 | 0.00 | 93 | 1014.2 |
| 20260506040039 | 64 | 0 | 0.0 | 0.0 | 0.00 | 0.00 | 0.00 | 93 | 1014.3 |
| 20260506034539 | 65 | 0 | 0.0 | 0.0 | 0.00 | 0.00 | 0.00 | 92 | 1014.4 |
| 20260506033038 | 65 | 0 | 0.0 | 0.0 | 0.00 | 0.00 | 0.00 | 92 | 1014.4 |
| 20260506031537 | 65 | 0 | 0.0 | 0.0 | 0.00 | 0.00 | 0.00 | 91 | 1014.4 |
| 20260506030056 | 65 | 0 | 0.0 | 0.0 | 0.00 | 0.00 | 0.00 | 91 | 1014.5 |
| 20260506024550 | 65 | 0 | 0.0 | 0.0 | 0.00 | 0.00 | 0.00 | 91 | 1014.4 |
| 20260506023037 | 66 | 0 | 0.0 | 0.0 | 0.00 | 0.00 | 0.00 | 90 | 1014.3 |
| 20260506021536 | 66 | 0 | 0.0 | 0.0 | 0.00 | 0.00 | 0.00 | 89 | 1014.2 |
| 20260506020039 | 67 | 0 | 0.0 | 0.0 | 0.00 | 0.00 | 0.00 | 88 | 1014.2 |
| 20260506014552 | 67 | 0 | 0.0 | 0.0 | 0.00 | 0.00 | 0.00 | 88 | 1014.2 |
| 20260506013037 | 68 | 0 | 0.0 | 0.0 | 0.00 | 0.00 | 0.00 | 87 | 1014.1 |
| 20260506011541 | 69 | 0 | 0.0 | 0.0 | 0.00 | 0.00 | 0.00 | 85 | 1014.0 |
| 20260506010049 | 69 | 0 | 0.0 | 0.0 | 0.00 | 0.00 | 0.00 | 84 | 1013.9 |
| 20260506004548 | 70 | 0 | 0.0 | 0.0 | 0.00 | 0.00 | 0.00 | 83 | 1013.9 |
| 20260506003041 | 71 | 0 | 0.0 | 0.0 | 0.00 | 0.00 | 0.00 | 81 | 1013.6 |
| 20260506001536 | 72 | 0 | 0.0 | 0.9 | 0.00 | 0.00 | 0.00 | 79 | 1013.6 |
| 20260506000035 | 73 | 200 | 0.0 | 2.6 | 0.00 | 0.00 | 0.00 | 78 | 1013.7 |
| 20260505234539 | 74 | 191 | 0.0 | 0.9 | 0.00 | 0.00 | 0.00 | 76 | 1013.7 |
| 20260505233037 | 75 | 238 | 0.9 | 4.3 | 0.00 | 0.00 | 0.00 | 73 | 1014.0 |
| 20260505231536 | 76 | 212 | 0.0 | 3.5 | 0.00 | 0.00 | 0.00 | 71 | 1013.9 |
| 20260505230045 | 77 | 0 | 0.9 | 4.3 | 0.00 | 0.00 | 0.00 | 70 | 1013.8 |
| 20260505224544 | 77 | 218 | 1.7 | 4.3 | 0.00 | 0.00 | 0.00 | 70 | 1013.9 |
| 20260505223037 | 76 | 241 | 2.6 | 7.0 | 0.00 | 0.00 | 0.00 | 69 | 1013.7 |
| 20260505221538 | 77 | 236 | 2.6 | 6.1 | 0.00 | 0.00 | 0.00 | 68 | 1013.7 |
| 20260505220042 | 79 | 200 | 0.9 | 5.2 | 0.00 | 0.00 | 0.00 | 66 | 1013.5 |
| 20260505214540 | 79 | 210 | 0.9 | 6.1 | 0.00 | 0.00 | 0.00 | 67 | 1013.4 |
| 20260505213045 | 80 | 147 | 2.6 | 8.7 | 0.00 | 0.00 | 0.00 | 62 | 1013.8 |
| 20260505211542 | 80 | 167 | 1.7 | 5.2 | 0.00 | 0.00 | 0.00 | 63 | 1013.7 |
| 20260505210037 | 79 | 228 | 2.6 | 8.7 | 0.00 | 0.00 | 0.00 | 63 | 1013.8 |
| 20260505204538 | 80 | 210 | 0.9 | 7.0 | 0.00 | 0.00 | 0.00 | 64 | 1013.8 |
| 20260505203044 | 79 | 226 | 4.3 | 10.4 | 0.00 | 0.00 | 0.00 | 61 | 1014.0 |
| 20260505201536 | 80 | 155 | 1.7 | 8.7 | 0.00 | 0.00 | 0.00 | 61 | 1014.1 |
| 20260505200039 | 80 | 181 | 3.5 | 7.8 | 0.00 | 0.00 | 0.00 | 59 | 1014.3 |
| 20260505194547 | 80 | 174 | 1.7 | 8.7 | 0.00 | 0.00 | 0.00 | 57 | 1014.5 |
| 20260505193055 | 81 | 214 | 1.7 | 7.8 | 0.00 | 0.00 | 0.00 | 56 | 1014.6 |
| 20260505191540 | 81 | 237 | 2.6 | 7.0 | 0.00 | 0.00 | 0.00 | 59 | 1014.6 |
| 20260505190041 | 80 | 226 | 2.6 | 11.3 | 0.00 | 0.00 | 0.00 | 55 | 1014.7 |
| 20260505184540 | 80 | 219 | 4.3 | 7.8 | 0.00 | 0.00 | 0.00 | 57 | 1014.9 |
| 20260505183040 | 80 | 175 | 0.9 | 11.3 | 0.00 | 0.00 | 0.00 | 59 | 1015.0 |
| 20260505181537 | 79 | 193 | 2.6 | 10.4 | 0.00 | 0.00 | 0.00 | 61 | 1015.0 |
| 20260505180040 | 79 | 253 | 1.7 | 6.1 | 0.00 | 0.00 | 0.00 | 61 | 1015.2 |
| 20260505174539 | 79 | 204 | 3.5 | 7.0 | 0.00 | 0.00 | 0.00 | 61 | 1015.2 |
| 20260505173039 | 78 | 141 | 3.5 | 9.6 | 0.00 | 0.00 | 0.00 | 63 | 1015.4 |
| 20260505171545 | 78 | 226 | 1.7 | 7.8 | 0.00 | 0.00 | 0.00 | 63 | 1015.3 |
| 20260505170039 | 78 | 136 | 1.7 | 6.1 | 0.00 | 0.00 | 0.00 | 66 | 1015.2 |
| 20260505164540 | 78 | 244 | 0.9 | 6.1 | 0.00 | 0.00 | 0.00 | 66 | 1015.3 |